Regional Weather Roundup
Issued by NWS

Home | Current Version | Previous Version | Graphics & Text | Print | Product List | Glossary On
Versions: 1 2 3 4 5 6 7 8 9 10 11 12 13 14 15 16 17 18 19 20 21 22 23 24 25 26 27 28 29 30 31 32 33 34 35 36 37 38 39 40 41 42 43 44 45 46 47 48 49 50
000
ASUS43 KMKX 030121
RWRWI

WISCONSIN REGIONAL WEATHER ROUNDUP
NATIONAL WEATHER SERVICE MILWAUKEE/SULLIVAN WI
800 PM CDT MON MAY 02 2016

NOTE: "FAIR" INDICATES FEW OR NO CLOUDS BELOW 12,000 FEET WITH NO
SIGNIFICANT WEATHER AND/OR OBSTRUCTIONS TO VISIBILITY.

WIZ001-002-006>008-014>016-023>028-030200-
NORTHWEST WISCONSIN

CITY           SKY/WX    TMP DP  RH WIND       PRES   REMARKS
SUPERIOR ARPT  CLEAR     43  35  72 NE3       29.98S
ASHLAND        CLEAR     51  41  68 N5        29.99S
HAYWARD        CLEAR     59  32  36 NE3       29.98S
SIREN          MOCLDY    61  31  33 SW5       29.98F
CUMBERLAND     CLOUDY    57  37  47 SW5       29.99F
RICE LAKE      PTCLDY    61  31  31 SW5       30.01S
CHETEK         CLEAR     57  35  42 CALM      30.00S
LADYSMITH      PTCLDY    58  36  42 S3        30.01S
EAU CLAIRE     MOCLDY    60  35  39 SW3       30.00R
MENOMONIE      MOCLDY    61  32  34 CALM      30.00S
NEW RICHMOND   PTCLDY    60  31  33 W5        30.01S
OSCEOLA        MOCLDY    62  32  33 SW5       30.03S
$$

WIZ003>005-009-010-017-018-030200-
NORTH CENTRAL WISCONSIN

CITY           SKY/WX    TMP DP  RH WIND       PRES   REMARKS
MANITOWISH WTR CLEAR     56  31  39 CALM      29.99S
ARBOR VITAE    CLEAR     56  36  46 CALM      29.99S
WOODRUFF       CLEAR     56  36  46 CALM      29.99S
RHINELANDER    CLOUDY    57  31  37 CALM      29.99F
EAGLE RIVER    MOCLDY    58  26  28 CALM      29.98S
LAND O LAKES   CLEAR     56  29  36 N5        30.00S
PHILLIPS       PTCLDY    56  35  45 CALM      29.98F
TOMAHAWK       MOCLDY    53  38  55 CALM      30.00S
MEDFORD        MOCLDY    55  39  54 CALM      30.00S
MERRILL        CLOUDY    57  37  45 CALM      30.00S
$$

WIZ029-030-035-036-043>047-030200-
CENTRAL WISCONSIN

CITY           SKY/WX    TMP DP  RH WIND       PRES   REMARKS
WAUSAU         PTCLDY    60  34  37 W3        29.98R
MOSINEE        CLEAR     57  34  41 NW8       30.01R
MARSHFIELD     CLEAR     59  33  37 W3        30.00R
STEVENS POINT  MOCLDY    58  32  37 CALM      30.00S
WAUPACA        MOCLDY    60  32  34 S3        29.99S
WAUTOMA        MOCLDY    59  32  36 S3        30.00S
WISC RAPIDS    CLEAR     58  31  35 NW3       30.01S
CAMP DOUGLAS   NOT AVBL
$$

WIZ011>013-019>022-031-037>040-048>050-030200-
NORTHEAST WISCONSIN

CITY           SKY/WX    TMP DP  RH WIND       PRES   REMARKS
ANTIGO         MOCLDY    53  35  52 CALM      29.99S
SHAWANO        MOCLDY    59  32  36 S6        29.99R
OCONTO         PTCLDY    54  36  51 S5        30.00R
STURGEON BAY   CLEAR     52  32  46 CALM      30.03S
GREEN BAY      CLEAR     55  37  50 SE8       30.00S
MANITOWOC      CLEAR     51  33  50 VRB6      30.01F
APPLETON       PTCLDY    55  32  41 S9        29.99R
CLINTONVILLE   CLOUDY    59  36  41 S5        29.99R
OSHKOSH        CLEAR     56  36  47 SE5       30.00S
$$

WIZ032>034-041-042-053>061-030200-
SOUTHWEST WISCONSIN

CITY           SKY/WX    TMP DP  RH WIND       PRES   REMARKS
LA CROSSE      PTCLDY    61  36  39 SW3       30.01R
SPARTA         CLOUDY    59  36  41 CALM      30.02S
VIROQUA        CLOUDY    58  34  39 CALM      30.02S
BOSCOBEL       CLOUDY    59  39  47 CALM      30.02S
PRAIRIE DU CHI CLOUDY    58  39  49 S3        30.02S
PLATTEVILLE    CLOUDY    58  40  51 CALM      30.02S
$$

WIZ056-057-062-063-064-067-068-030200-
SOUTH CENTRAL WISCONSIN

CITY           SKY/WX    TMP DP  RH WIND       PRES   REMARKS
REEDSBURG      CLOUDY    58  36  43 CALM      30.00S
BARABOO/DELLS  CLOUDY    58  34  40 SW3       30.00S
LONE ROCK      CLOUDY    59  39  47 CALM      30.01S
MINERAL POINT  CLOUDY    59  32  36 CALM      30.02S
MADISON        PTCLDY    55  34  45 CALM      30.01R
MIDDLETON      CLEAR     59  31  34 CALM      30.02R
WATERTOWN      CLEAR     54  37  52 SE3       30.01S
MONROE         CLEAR     55  34  44 CALM      30.01S
JANESVILLE     MOCLDY    57  39  51 SE3       30.01S
$$

WIZ051-052-058>065-066-070>072-030200-
SOUTHEAST WISCONSIN

CITY           SKY/WX    TMP DP  RH WIND       PRES   REMARKS
MILWAUKEE      PTCLDY    48  32  53 CALM      30.03S
WAUKESHA       PTCLDY    48  30  49 E12       30.03R
MILWAUKEE/TIMM CLEAR     52  28  40 E6        30.03S
RACINE         CLEAR     48  33  56 CALM      30.04S
BURLINGTON     CLEAR     51  32  49 E7        30.03R
KENOSHA        CLEAR     46  33  60 E5        30.03S
FOND DU LAC    CLEAR     54  37  52 SE7       30.00S
SHEBOYGAN      CLEAR     49  34  56 CALM      30.01F
WEST BEND      CLEAR     54  32  43 SE3       30.02S
JUNEAU         CLEAR     54  39  57 SE5       30.02S
$$

LSZ147-162-030200-
LAKE SUPERIOR

STATION/POSITION TIME  TEMP    WIND        PRES    WAVE
                       AIR SEA DIR/SP/G            HT/PER
                 (UTC) (F)     (DEG/KT/KT) (MB)    (FT/S)
W MID LAKE BUOY  0050   42 37  260/  2/  2 1016.3F   0
DEVILS ISLAND    0100   47     110/  5/  5 1015.9S
SAXON HARBOR     0000   51      40/  1/  2 1015.2
$$

LMZ867-665-643>646-030200-
LAKE MICHIGAN

STATION/POSITION TIME  TEMP    WIND        PRES    WAVE
                       AIR SEA DIR/SP/G            HT/PER
                 (UTC) (F)     (DEG/KT/KT) (MB)    (FT/S)
CHAMBERS ISLAND  0040   56     150/  2/  4 1016.3S
N MID LAKE BUOY  0050   45 39  240/  4/  6 1016.0F   0
NORTHPORT PIER   0000   56     170/  4/  7 1015.9F
ALGOMA LAKESHORE 0045             CALM       N/A
KEWAUNEE LAKESHO 0000   52                 1015.5F
SHEBOYGAN LAKESH 0100   49      20/  2/  2 1017.0R
PORT WASHINGTON  0000   51      30/  4/  7 1017.3S
S MID LAKE BUOY  0050   42 41  310/  2/  4 1016.5F   1/ 3
KENOSHA   LAKESH 0100   47     360/  4/  6 1016.9R
$$

TC  - TEMPERATURE IN CELSIUS
VSB - VISIBILITY IN STATUTE MILES
WCI - WIND CHILL INDEX
HX  - HEAT INDEX




USA.gov is the U.S. government's official web portal to all federal, state and local government web resources and services.